Massena, NY

7:33 PM EDT on September 20, 2019 (GMT -0400)
Massena International-Richards

Weather History for KMSS - July, 2019

Change the Weather History Date:

Thursday, July 11, 2019

  Actual Average Record
Temperature  
Mean Temperature 78 °F 69 °F  
Max Temperature 90 °F 80 °F 92 °F (1982)
Min Temperature 65 °F 58 °F 45 °F (1980)
Degree Days  
Heating Degree Days 0 1  
Month to date heating degree days 0 11  
Since 1 June heating degree days 97 107  
Since 1 July heating degree days 0 11  
Cooling Degree Days 13 5  
Month to date cooling degree days 87 52  
Year to date cooling degree days 146 141  
Since 1 June cooling degree days 145 127  
Growing Degree Days 26 (Base 50)    
Moisture  
Dew Point 66 °F    
Average Humidity 74    
Maximum Humidity 93    
Minimum Humidity 55    
Precipitation  
Precipitation 0.85 in 0.11 in 3.08 in (1970)
Month to date precipitation 0.91 1.24  
Year to date precipitation 15.40 16.69  
Sea Level Pressure  
Sea Level Pressure 29.78 in    
Wind  
Wind Speed 6 mph (SE)    
Max Wind Speed 23 mph    
Max Gust Speed 29 mph    
Visibility 8 miles    
Events Rain , Thunderstorm    
T = Trace of Precipitation, MM = Missing Value Source: NWS Daily Summary

Daily Weather History Graph

Daily Weather History Graph

Search for Another Location

Airport or City:

Astronomy

Jul. 11, 2019 Rise Set
Actual Time 5:23 AM EDT 8:45 PM EDT
Civil Twilight 4:47 AM EDT 9:22 PM EDT
Nautical Twilight 3:59 AM EDT 10:09 PM EDT
Astronomical Twilight 2:59 AM EDT 11:08 PM EDT
Moon 3:49 PM EDT (7/11) 1:42 AM EDT (7/11)
Length of Visible Light 16h 34m
Length of Day
15h 22m
Waxing Gibbous, 74% of the Moon is Illuminated
Jul 11
Waxing Gibbous
Jul 16
Full
Jul 24
Last Quarter
Jul 31
New
Aug 7
First Quarter

Hourly Weather History & Observations

Time (EDT) Temp. Heat Index Dew Point Humidity Pressure Visibility Wind Dir Wind Speed Gust Speed Precip Events Conditions
12:53 AM 66.9 °F - 63.0 °F 87% 29.89 in 10.0 mi Calm Calm - N/A   Mostly Cloudy
1:53 AM 64.9 °F - 62.1 °F 90% 29.88 in 10.0 mi Calm Calm - N/A   Clear
2:53 AM 66.9 °F - 63.0 °F 87% 29.87 in 10.0 mi Calm Calm - N/A   Mostly Cloudy
3:53 AM 69.1 °F - 63.0 °F 81% 29.86 in 10.0 mi Calm Calm - N/A   Overcast
4:53 AM 69.1 °F - 63.0 °F 81% 29.85 in 10.0 mi Calm Calm - N/A   Mostly Cloudy
5:53 AM 70.0 °F - 63.0 °F 78% 29.84 in 10.0 mi Calm Calm - N/A   Mostly Cloudy
6:53 AM 72.0 °F - 64.9 °F 78% 29.85 in 10.0 mi Calm Calm - N/A   Mostly Cloudy
7:53 AM 73.9 °F - 64.9 °F 73% 29.84 in 10.0 mi East 4.6 mph - N/A   Scattered Clouds
8:53 AM 73.9 °F - 64.9 °F 73% 29.85 in 10.0 mi East 10.4 mph - N/A   Scattered Clouds
9:53 AM 75.9 °F - 66.9 °F 74% 29.83 in 10.0 mi ESE 3.5 mph - N/A   Mostly Cloudy
10:53 AM 77.0 °F - 69.1 °F 76% 29.82 in 10.0 mi NE 6.9 mph - 0.00 in   Scattered Clouds
11:05 AM 75.9 °F - 68.0 °F 76% 29.82 in 10.0 mi East 4.6 mph - N/A Thunderstorm Mostly Cloudy
11:20 AM 75.9 °F - 69.1 °F 79% 29.83 in 10.0 mi East 6.9 mph - N/A   Mostly Cloudy
11:53 AM 77.0 °F - 70.0 °F 79% 29.81 in 10.0 mi East 6.9 mph - N/A   Partly Cloudy
12:53 PM 81.0 °F 84.9 °F 71.1 °F 72% 29.77 in 10.0 mi South 10.4 mph - N/A   Clear
1:53 PM 84.9 °F 89.4 °F 70.0 °F 61% 29.75 in 10.0 mi South 8.1 mph - N/A   Clear
2:53 PM 88.0 °F 92.1 °F 69.1 °F 53% 29.70 in 10.0 mi South 12.7 mph - N/A   Clear
3:53 PM 88.0 °F 92.9 °F 70.0 °F 55% 29.70 in 10.0 mi South 16.1 mph - N/A   Clear
4:53 PM 88.0 °F 92.9 °F 70.0 °F 55% 29.70 in 10.0 mi SW 12.7 mph - N/A   Partly Cloudy
5:53 PM 84.0 °F 89.0 °F 71.1 °F 65% 29.69 in 10.0 mi SSW 4.6 mph - N/A   Mostly Cloudy
6:09 PM 73.0 °F - 63.0 °F 71% 29.72 in 10.0 mi North 12.7 mph 25.3 mph 0.00 in Rain , Thunderstorm Light Rain
6:13 PM 72.0 °F - 63.0 °F 73% 29.73 in 10.0 mi NNW 12.7 mph 25.3 mph 0.00 in Thunderstorm Thunderstorm
6:30 PM 69.1 °F - 64.0 °F 84% 29.78 in 1.8 mi NW 17.3 mph 25.3 mph 0.19 in Rain , Thunderstorm Heavy Thunderstorms and Rain
6:33 PM 69.1 °F - 64.0 °F 84% 29.76 in 0.8 mi NNW 15.0 mph 25.3 mph 0.33 in Rain , Thunderstorm Heavy Thunderstorms and Rain
6:47 PM 68.0 °F - 64.4 °F 88% 29.78 in 1.8 mi SSE 8.1 mph - 0.62 in Rain , Thunderstorm Thunderstorms and Rain
6:50 PM 68.0 °F - 64.4 °F 88% 29.78 in 3.0 mi SSE 10.4 mph - 0.63 in Rain , Thunderstorm Thunderstorms and Rain
6:53 PM 68.0 °F - 64.9 °F 90% 29.78 in 3.0 mi SE 10.4 mph - 0.64 in Rain , Thunderstorm Thunderstorms and Rain
6:57 PM 68.0 °F - 64.9 °F 90% 29.78 in 2.5 mi ESE 9.2 mph - 0.02 in Rain , Thunderstorm Thunderstorms and Rain
7:11 PM 68.0 °F - 64.9 °F 90% 29.76 in 10.0 mi North 5.8 mph - 0.05 in Rain , Thunderstorm Light Thunderstorms and Rain
7:19 PM 68.0 °F - 64.9 °F 90% 29.76 in 7.0 mi Variable 4.6 mph - 0.06 in Rain Light Rain
7:33 PM 68.0 °F - 64.9 °F 90% 29.75 in 1.8 mi South 5.8 mph - 0.13 in Rain Heavy Rain
7:48 PM 68.0 °F - 64.4 °F 88% 29.71 in 2.5 mi East 4.6 mph - 0.20 in Rain Rain
7:53 PM 68.0 °F - 64.9 °F 90% 29.70 in 6.0 mi ESE 3.5 mph - 0.20 in Rain Light Rain
8:53 PM 68.0 °F - 64.9 °F 90% 29.72 in 10.0 mi ESE 8.1 mph - 0.01 in   Clear
9:53 PM 68.0 °F - 64.9 °F 90% 29.72 in 10.0 mi SE 3.5 mph - 0.00 in Rain Light Rain
10:53 PM 68.0 °F - 64.9 °F 90% 29.70 in 10.0 mi SSE 5.8 mph - 0.00 in Rain Light Rain
11:53 PM 68.0 °F - 64.9 °F 90% 29.70 in 10.0 mi WSW 3.5 mph - 0.00 in   Partly Cloudy